Weather History for KFNL - April, 2014

Change the Weather History Date:

Wednesday, April 9, 2014

  Actual Average Record
Temperature  
Mean Temperature 57 °F -  
Max Temperature 75 °F 57 °F 78 °F (2002)
Min Temperature 39 °F 31 °F 12 °F (2013)
Degree Days  
Heating Degree Days 8    
Growing Degree Days 7 (Base 50)    
Moisture  
Dew Point 25 °F    
Average Humidity 28    
Maximum Humidity 61    
Minimum Humidity 16    
Precipitation  
Precipitation 0.00 in - - ()
Sea Level Pressure  
Sea Level Pressure 29.97 in    
Wind  
Wind Speed 7 mph (WSW)    
Max Wind Speed 17 mph    
Max Gust Speed 24 mph    
Visibility 10 miles    
Events      
Averages and records for this station are not official NWS values.
T = Trace of Precipitation, MM = Missing Value Source: NWS Daily Summary

Daily Weather History Graph

Daily Weather History Graph

Search for Another Location

Airport or City:

Trip Planner

Search our weather history database for the weather conditions in past years. The results will help you decide how hot, cold, wet, or windy it might be!

Date:

Astronomy

Apr. 09, 2014 Rise Set
Actual Time 6:30 AM MDT 7:32 PM MDT
Civil Twilight 6:02 AM MDT 8:00 PM MDT
Nautical Twilight 5:29 AM MDT 8:34 PM MDT
Astronomical Twilight 4:55 AM MDT 9:08 PM MDT
Moon 2:22 PM MDT (4/9) 3:22 AM MDT (4/9)
Length of Visible Light 13h 57m
Length of Day
13h 02m
Waxing Gibbous, 72% of the Moon is Illuminated
Apr 9
Waxing Gibbous
Apr 15
Full
Apr 22
Last Quarter
Apr 29
New
May 6
First Quarter

Hourly Weather History & Observations

Time (MDT) Temp. Windchill Dew Point Humidity Pressure Visibility Wind Dir Wind Speed Gust Speed Precip Events Conditions
12:15 AM 59.0 °F - 24.8 °F 27% 30.09 in 10.0 mi West 8.1 mph - N/A   Clear
12:35 AM 55.4 °F - 24.8 °F 31% 30.08 in 10.0 mi West 12.7 mph - N/A   Clear
12:55 AM 57.2 °F - 24.8 °F 29% 30.08 in 10.0 mi West 6.9 mph - N/A   Clear
1:15 AM 57.2 °F - 23.0 °F 27% 30.08 in 10.0 mi East 3.5 mph - N/A   Clear
1:35 AM 55.4 °F - 21.2 °F 26% 30.07 in 10.0 mi East 4.6 mph - N/A   Clear
1:55 AM 60.8 °F - 23.0 °F 23% 30.06 in 10.0 mi Calm Calm - N/A   Clear
2:15 AM 57.2 °F - 21.2 °F 25% 30.06 in 10.0 mi West 4.6 mph - N/A   Clear
2:35 AM 55.4 °F - 24.8 °F 31% 30.05 in 10.0 mi West 6.9 mph - N/A   Clear
2:55 AM 55.4 °F - 24.8 °F 31% 30.04 in 10.0 mi West 9.2 mph - N/A   Clear
3:15 AM 55.4 °F - 24.8 °F 31% 30.04 in 10.0 mi WNW 6.9 mph - N/A   Clear
3:35 AM 55.4 °F - 24.8 °F 31% 30.03 in 10.0 mi WNW 8.1 mph 20.7 mph N/A   Clear
3:55 AM 57.2 °F - 23.0 °F 27% 30.03 in 10.0 mi NW 9.2 mph 23.0 mph N/A   Clear
4:15 AM 55.4 °F - 21.2 °F 26% 30.03 in 10.0 mi Calm Calm - N/A   Clear
4:35 AM 48.2 °F - 21.2 °F 34% 30.02 in 10.0 mi East 10.4 mph - N/A   Clear
4:55 AM 48.2 °F - 21.2 °F 34% 30.03 in 10.0 mi SSE 3.5 mph - N/A   Clear
5:15 AM 50.0 °F - 23.0 °F 35% 30.03 in 10.0 mi ENE 6.9 mph - N/A   Clear
5:35 AM 50.0 °F - 21.2 °F 32% 30.03 in 10.0 mi North 5.8 mph - N/A   Clear
5:55 AM 48.2 °F - 21.2 °F 34% 30.02 in 10.0 mi ESE 4.6 mph - N/A   Clear
6:15 AM 44.6 °F 43.1 °F 21.2 °F 39% 30.03 in 10.0 mi NNE 3.5 mph - N/A   Clear
6:35 AM 44.6 °F 41.4 °F 23.0 °F 43% 30.03 in 10.0 mi NW 5.8 mph - N/A   Clear
6:55 AM 39.2 °F 35.9 °F 26.6 °F 61% 30.04 in 10.0 mi NNW 4.6 mph - N/A   Clear
7:15 AM 42.8 °F 38.0 °F 28.4 °F 57% 30.03 in 10.0 mi ESE 8.1 mph - N/A   Clear
7:35 AM 44.6 °F - 28.4 °F 53% 30.04 in 10.0 mi Calm Calm - N/A   Clear
7:55 AM 44.6 °F 40.2 °F 28.4 °F 53% 30.06 in 10.0 mi North 8.1 mph - N/A   Clear
8:15 AM 46.4 °F 45.2 °F 30.2 °F 53% 30.05 in 10.0 mi ENE 3.5 mph - N/A   Clear
8:35 AM 48.2 °F - 30.2 °F 50% 30.05 in 10.0 mi South 4.6 mph - N/A   Clear
8:55 AM 51.8 °F - 30.2 °F 44% 30.05 in 10.0 mi SW 6.9 mph - N/A   Clear
9:15 AM 51.8 °F - 33.8 °F 50% 30.04 in 10.0 mi South 4.6 mph - N/A   Clear
9:35 AM 55.4 °F - 33.8 °F 44% 30.04 in 10.0 mi South 3.5 mph - N/A   Clear
9:55 AM 59.0 °F - 30.2 °F 34% 30.04 in 10.0 mi SSW 3.5 mph - N/A   Clear
10:15 AM 62.6 °F - 28.4 °F 27% 30.04 in 10.0 mi WSW 11.5 mph 20.7 mph N/A   Clear
10:35 AM 62.6 °F - 28.4 °F 27% 30.03 in 10.0 mi WSW 10.4 mph - N/A   Clear
10:55 AM 62.6 °F - 30.2 °F 30% 30.03 in 10.0 mi SW 10.4 mph - N/A   Clear
11:15 AM 62.6 °F - 30.2 °F 30% 30.02 in 10.0 mi SSW 11.5 mph - N/A   Clear
11:35 AM 64.4 °F - 30.2 °F 28% 30.01 in 10.0 mi South 9.2 mph - N/A   Clear
11:55 AM 68.0 °F - 30.2 °F 24% 29.99 in 10.0 mi South 16.1 mph - N/A   Clear
12:15 PM 69.8 °F - 30.2 °F 23% 29.98 in 10.0 mi SSW 16.1 mph - N/A   Clear
12:35 PM 69.8 °F - 28.4 °F 21% 29.97 in 10.0 mi South 16.1 mph - N/A   Clear
12:55 PM 71.6 °F - 28.4 °F 20% 29.96 in 10.0 mi South 17.3 mph - N/A   Clear
1:15 PM 71.6 °F - 30.2 °F 22% 29.96 in 10.0 mi South 11.5 mph 18.4 mph N/A   Clear
1:35 PM 73.4 °F - 30.2 °F 20% 29.94 in 10.0 mi South 15.0 mph 19.6 mph N/A   Clear
1:55 PM 71.6 °F - 26.6 °F 19% 29.94 in 10.0 mi South 9.2 mph - N/A   Clear
2:15 PM 75.2 °F - 26.6 °F 17% 29.93 in 10.0 mi SE 6.9 mph - N/A   Clear
2:35 PM 75.2 °F - 26.6 °F 17% 29.92 in 10.0 mi Calm Calm - N/A   Clear
2:55 PM 73.4 °F - 24.8 °F 16% 29.91 in 10.0 mi SW 6.9 mph - N/A   Clear
3:15 PM 73.4 °F - 24.8 °F 16% 29.90 in 10.0 mi WSW 5.8 mph - N/A   Clear
3:35 PM 71.6 °F - 24.8 °F 17% 29.89 in 10.0 mi WSW 5.8 mph 16.1 mph N/A   Clear
3:55 PM 73.4 °F - 24.8 °F 16% 29.88 in 10.0 mi South 3.5 mph - N/A   Clear
4:15 PM 71.6 °F - 24.8 °F 17% 29.87 in 10.0 mi South 3.5 mph - N/A   Clear
4:35 PM 73.4 °F - 24.8 °F 16% 29.87 in 10.0 mi SE 6.9 mph - N/A   Clear
4:55 PM 73.4 °F - 26.6 °F 18% 29.87 in 10.0 mi Calm Calm - N/A   Clear
5:15 PM 73.4 °F - 26.6 °F 18% 29.86 in 10.0 mi West 12.7 mph - N/A   Clear
5:35 PM 73.4 °F - 28.4 °F 19% 29.86 in 10.0 mi WNW 10.4 mph - N/A   Clear
5:55 PM 71.6 °F - 28.4 °F 20% 29.86 in 10.0 mi WSW 15.0 mph - N/A   Clear
6:15 PM 71.6 °F - 24.8 °F 17% 29.86 in 10.0 mi West 9.2 mph - N/A   Clear
6:35 PM 73.4 °F - 26.6 °F 18% 29.86 in 10.0 mi West 17.3 mph 24.2 mph N/A   Clear
6:55 PM 71.6 °F - 23.0 °F 16% 29.86 in 10.0 mi WSW 15.0 mph - N/A   Clear
7:15 PM 66.2 °F - 23.0 °F 19% 29.86 in 10.0 mi WSW 5.8 mph - N/A   Clear
7:35 PM 64.4 °F - 24.8 °F 22% 29.86 in 10.0 mi SW 4.6 mph - N/A   Clear
7:55 PM 62.6 °F - 21.2 °F 20% 29.86 in 10.0 mi West 3.5 mph - N/A   Clear
8:15 PM 62.6 °F - 21.2 °F 20% 29.86 in 10.0 mi Calm Calm - N/A   Clear
8:35 PM 62.6 °F - 21.2 °F 20% 29.88 in 10.0 mi NNW 3.5 mph - N/A   Clear
8:55 PM 64.4 °F - 21.2 °F 19% 29.89 in 10.0 mi WSW 5.8 mph - N/A   Clear
9:15 PM 64.4 °F - 19.4 °F 18% 29.89 in 10.0 mi SW 8.1 mph - N/A   Clear
9:35 PM 62.6 °F - 21.2 °F 20% 29.90 in 10.0 mi WSW 6.9 mph - N/A   Clear
9:55 PM 57.2 °F - 21.2 °F 25% 29.91 in 10.0 mi West 8.1 mph - N/A   Clear
10:15 PM 57.2 °F - 23.0 °F 27% 29.90 in 10.0 mi NW 4.6 mph - N/A   Clear
10:35 PM 57.2 °F - 23.0 °F 27% 29.90 in 10.0 mi West 5.8 mph - N/A   Clear
10:55 PM 57.2 °F - 23.0 °F 27% 29.91 in 10.0 mi NNE 6.9 mph - N/A   Clear
11:15 PM 57.2 °F - 23.0 °F 27% 29.91 in 10.0 mi NNE 8.1 mph - N/A   Clear
11:35 PM 55.4 °F - 23.0 °F 29% 29.92 in 10.0 mi NNE 5.8 mph - N/A   Clear
11:55 PM 55.4 °F - 23.0 °F 29% 29.93 in 10.0 mi North 8.1 mph - N/A   Clear